CZ-6A DEB, 55869

Orbit data source: Space-Track

CZ-6A DEB, 55869 is space debris in SSO originally from a launch on Fri, 11 Nov 2022 UTC launched from the Taiyaun Space Center, China (TSC). Debris objects in space refer to the collection of defunct objects orbiting the Earth. Examples of debris include non-operational satellites, rocket bodies, and fragments generated from explosions, collisions, or faulty payload assembly.

Loading next visibility...
Identifier
55869, 2022-151ZR
Orbit
SSO
Country
Flag of CNCN / PRC
Related business
Manufacturer
SAST
Mission
Spacecraft
Bus & Motor
Unknown
Mass
Unknown
Launch date (UTC)
2022-11-11 (3 years ago)
Launch vehicle
Unknown
Launch site
Taiyaun Space Center, China (TSC)
Object type
Payload
Rocket body
Debris
Shape & HBR
Unknown shape, 0.1 m
Radar Cross Section
Small (<0.1 m²)

Expand to show TLE details & history
Last TLE update: 16 hours ago

TLE from 16 hours ago
0 CZ-6A DEB
1 55869U 22151ZR  26130.13305983  .00007440  00000-0  11475-2 0  9993
2 55869  98.6384 196.7614 0070495  39.5427 321.0891 14.72022393172650
Epoch: 2026-05-10T03:11Z
TLE epoch observation values (Epoch: 2026-05-10T03:11:36.369Z)
Latitude
-0.00003°
Longitude
-79.08065°
Altitude
619.161 km
Speed
7.57 km/s
True Right ascension
13h 07m 02s
True Declination
0° 00' 00"
Sunlit
Object was in full shadow at epoch
Visualization orbit readout
Latitude
Unknown
Longitude
Unknown
Altitude
Unknown
Speed
Unknown
Apparent Right ascension
Unknown
Apparent Declination
Unknown
Sunlit
N/A
Visualization observer readout
Local Sidereal Time
03:38:32
Azimuth
Unknown
Elevation
Unknown
Doppler factor
Unknown
Orbital elements
Apogee altitude
701.262 km
Perigee altitude
602.148 km
Semi-major axis
7,029.842 km
Eccentricity
0.00705
Inclination
98.6384°
RAAN
196.7614°
Arg. of periapsis
39.5427°
True anomaly
320.57821°
Mean anomaly
321.0891°
Eccentric anomaly
320.83401°
Mean motion
3.68235 °/min
Orbital period
97.76 mins
BSTAR
0.0011475
Loading maneuver chart data...
Computing Atmospheric mass density...
Loading historical data...
Loading historical data...
Loading historical data...
Loading historical data...
Loading historical data...
Loading historical data...
Loading historical data...

Documentation

Showing up to 5 results
|